Location: Taukkyan
(23.1052°N, 94.0030°E)
Time: 11:12:07
(UTC+00:00)

Delta 128 - Pass Details

Date: 06 July 2020
Orbit: 609 x 1216 km, 28.0° (Epoch: 14 August)

Event Time Altitude Azimuth Distance (km) Brightness Sun altitude
Exits shadow 21:59:59 - 287° (WNW) 2,968 6.7 -13.8°
Reaches altitude 10° 22:01:21 10° 289° (WNW) 2,462 6.3 -13.5°
Maximum altitude 22:07:06 67° 11° (NNE) 808 4.3 -12.4°
Drops below altitude 10° 22:11:59 10° 95° (E) 2,104 7.2 -11.4°
Sets 22:14:14 0° 98° (E) 2,959 7.9 -11.0°
